COSMOS 2392

导读 | 星芒AI

COSMOS 2392 是俄罗斯于2014年发射的一颗军用通信卫星,搭载于“联盟-2.1b”运载火箭,主要用于支持俄罗斯武装部队的通信需求。该卫星运行在近地轨道,具有高度机密性,其具体功能和轨道参数未完全公开。COSMOS 2392 是俄罗斯“天网”(Tundra)卫星系统的一部分,旨在提升俄军在全球范围内的战术通信能力。该系统由多颗高轨道卫星组成,提供长时间覆盖特定区域的能力。

基本信息
目录编号:
27470
目录名称:
COSMOS 2392
国际标识:
2002-037A
轨道中心:
EARTH
卫星名称:
COSMOS 2392
卫星全名:
--
卫星状态:
在轨 (已飞行8503 天)
发射日期:
2002-07-25 UTC
国别 :
俄罗斯(独联体) (CIS)
星等 :
--
轨道信息
数据来源 国际轨道数据 AOE轨道数据
星历时间 2025-11-04T04:10:30+0800
6小时前
查看轨道信息
2025-11-02T10:00:00+0800
2天前
查看轨道信息
半长轴 8028.674km 8028.678km
偏心率 0.0609457 0.060944
轨道倾角 63.398° 63.398°
近地点辐角 358.361° 358.351°
升交点赤经 142.104° 145.632°
平近点角 12.000° 297.435°
近地点 1161.225km 1161.243km
远地点 2139.853km 2139.843km
周期 119.323分钟 119.323分钟
每日圈数 12.068048 12.068041
详细信息
使用方式:
暂无
2D轨道图
3D轨道图
轨道高度分析图
轨道倾角分析图
轨道综合分析图
查看轨道综合分析图